Content
SEND FEEDBACK

Daily
Averages
Monthly
Summary
United States of America

VERONA, NORTH DAKOTA


Home > North America > United States > North Dakota
Elevation: 420 meters     Latitude: 46 22N     Longitude: 098 04W

WEATHER
 
SELECT A DAY
Number of Records: 74,932;   Date Range: 5/13/11 - 9/15/14
 
SHARE

PRINT THIS DATA

[ ← Previous Day ]
WEATHER ALMANAC - 31 JANUARY, 2013
[ Next Day → ]
[ °F ]   °C
Weather ElementAverageHighLow
Temperature-24.4 °C (12:35 am)-28 °C (11:35 pm)
Dewpoint-28.3 °C (12:35 am)-32 °C (11:55 pm)
Humidity70.2 %77 % (2:15 am)64 % (10:55 am)
Barometer1022 hPa1025.7 hPa (7:35 pm)1013.9 hPa (12:35 am)
Wind Speed26.6 km/h38.9 km/h (6:55 am)
Wind Gust50.1 km/h (6:15 am)
Weather ElementAverage
Visibility14.5 km
Wind DirectionWNW (299 °)

Weather ElementTotal
Precipitation---
Heating Degree Days41.2 (Base 18.3)
Averaged from 69 records on 31 January, 2013
WEATHER CONDITIONS BREAKOUT
WIND DIRECTION BREAKOUT
WEATHER BY HOUR - 31 JANUARY, 2013
[ °F ]   °C
Local TimeTemperatureDewpointHumidityBarometerVisibilityWind DirectionWind SpeedGust SpeedPrecipitationEventsConditions
12:35 AM-17.8 °C-17.8 °C1013.9 hPa16.1 kmNNW (330°)27.8 km/h
12:55 AM-24 °C-28 °C70 %1014.6 hPa16.1 kmNW (310°)25.9 km/h33.3 km/h
1:15 AM-17.8 °C-17.8 °C1014.6 hPa16.1 kmNW (310°)33.3 km/h40.7 km/h
1:35 AM-24 °C-28 °C70 %1014.9 hPa16.1 kmNW (310°)27.8 km/h44.4 km/h
1:55 AM-24 °C-28 °C70 %1015.2 hPa16.1 kmNW (310°)27.8 km/h37 km/h
2:15 AM-25 °C-28 °C77 %1015.6 hPa14.5 kmNW (310°)31.5 km/h38.9 km/h
2:35 AM-25 °C-29 °C70 %1015.6 hPa16.1 kmNW (310°)31.5 km/h38.9 km/h
2:55 AM-25 °C-29 °C70 %1015.9 hPa16.1 kmNW (310°)27.8 km/h44.4 km/h
3:15 AM-25 °C-29 °C70 %1015.9 hPa16.1 kmNW (310°)31.5 km/h42.6 km/h
3:35 AM-25 °C-29 °C70 %1016.3 hPa16.1 kmNW (310°)31.5 km/h
3:55 AM-25 °C-29 °C70 %1016.6 hPa16.1 kmNW (310°)27.8 km/h
4:15 AM-26 °C-29 °C77 %1016.6 hPa16.1 kmWNW (300°)27.8 km/h40.7 km/h
4:35 AM-26 °C-30 °C70 %1016.9 hPa16.1 kmWNW (300°)29.6 km/h38.9 km/h
4:55 AM-25 °C-29 °C70 %1017.3 hPa16.1 kmNW (310°)29.6 km/h
5:15 AM-25 °C-29 °C70 %1017.9 hPa16.1 kmNW (310°)29.6 km/h37 km/hSnowLight Snow
5:35 AM-25 °C-29 °C70 %1017.9 hPa16.1 kmNW (310°)33.3 km/h42.6 km/hSnowLight Snow
5:55 AM-25 °C-29 °C70 %1018.3 hPa8 kmNW (320°)35.2 km/h48.1 km/hSnowLight Snow
6:15 AM-25 °C-29 °C70 %1018.3 hPa8 kmNW (320°)33.3 km/h50.1 km/hHaze
6:35 AM-25 °C-29 °C70 %1019 hPa14.5 kmNW (320°)35.2 km/h44.4 km/h
6:55 AM-25 °C-29 °C70 %1019.3 hPa14.5 kmNW (320°)38.9 km/h
7:15 AM-25 °C-29 °C70 %1019.6 hPa8 kmNW (310°)35.2 km/h50.1 km/hHaze
7:35 AM-25 °C-29 °C70 %1020.3 hPa16.1 kmNW (310°)31.5 km/hClear
7:55 AM-25 °C-29 °C70 %1020.7 hPa16.1 kmNW (310°)33.3 km/h44.4 km/h
8:15 AM-25 °C-29 °C70 %1021.3 hPa9.7 kmNW (310°)33.3 km/h48.1 km/hHaze
8:35 AM-26 °C-29 °C77 %1021.3 hPa6.4 kmNW (310°)37 km/h48.1 km/hHaze
8:55 AM-26 °C-29 °C77 %1022 hPa12.9 kmNW (310°)31.5 km/h44.4 km/hClear
9:15 AM-25 °C-29 °C70 %1022.4 hPa12.9 kmNW (310°)31.5 km/hClear
9:35 AM-25 °C-29 °C70 %1022.7 hPa12.9 kmNW (310°)33.3 km/h46.3 km/h
9:55 AM-25 °C-29 °C70 %1023 hPa8 kmNW (310°)31.5 km/h46.3 km/hHaze
10:15 AM-25 °C-29 °C70 %1023.4 hPa8 kmNW (310°)33.3 km/h48.1 km/hHaze
10:35 AM-25 °C-29 °C70 %1023.7 hPa11.3 kmNW (310°)37 km/h48.1 km/hRainLight Rain
10:55 AM-24 °C-29 °C64 %1024 hPa12.9 kmNW (310°)31.5 km/h44.4 km/h
11:15 AM-24 °C-29 °C64 %1024 hPa16.1 kmNW (310°)29.6 km/h40.7 km/h
11:35 AM-24 °C-28 °C70 %1024.4 hPa16.1 kmNW (310°)35.2 km/h
11:55 AM-24 °C-28 °C70 %1024.4 hPa12.9 kmNW (310°)35.2 km/h44.4 km/hPartly Cloudy
12:15 PM-23 °C-28 °C65 %1024.4 hPa14.5 kmNW (320°)31.5 km/h44.4 km/h
12:35 PM-23 °C-27 °C71 %1024.4 hPa14.5 kmNW (310°)31.5 km/h38.9 km/h
12:55 PM-23 °C-27 °C71 %1024.4 hPa12.9 kmWNW (300°)35.2 km/h44.4 km/h
1:15 PM-23 °C-27 °C71 %1024.4 hPa12.9 kmNW (310°)37 km/h48.1 km/hScattered Clouds
1:35 PM-23 °C-27 °C71 %1024.7 hPa11.3 kmNW (310°)29.6 km/h44.4 km/h
1:55 PM-23 °C-27 °C71 %1024.4 hPa11.3 kmNW (310°)33.3 km/h48.1 km/h
2:15 PM-22 °C-27 °C65 %1024.4 hPa12.9 kmNW (320°)33.3 km/h42.6 km/h
2:35 PM-22 °C-27 °C65 %1024.4 hPa12.9 kmNW (310°)27.8 km/h46.3 km/h
2:55 PM-22 °C-27 °C65 %1024.4 hPa12.9 kmNW (310°)29.6 km/hOvercast
3:15 PM-22 °C-27 °C65 %1024.7 hPa14.5 kmWNW (300°)31.5 km/h40.7 km/h
3:35 PM-22 °C-27 °C65 %1025.1 hPa16.1 kmNW (310°)29.6 km/h40.7 km/h
3:55 PM-22 °C-27 °C65 %1025.1 hPa16.1 kmNW (310°)31.5 km/h37 km/h
4:15 PM-22 °C-27 °C65 %1025.1 hPa16.1 kmNW (310°)27.8 km/h37 km/h
4:35 PM-22 °C-27 °C65 %1025.1 hPa16.1 kmWNW (300°)24.1 km/hPartly Cloudy
4:55 PM-22 °C-27 °C65 %1025.1 hPa16.1 kmNW (310°)22.2 km/h
5:15 PM-23 °C-27 °C71 %1025.4 hPa16.1 kmWNW (300°)22.2 km/h27.8 km/h
5:35 PM-23 °C-27 °C71 %1025.4 hPa16.1 kmWNW (300°)18.5 km/h
5:55 PM-23 °C-28 °C65 %1025.4 hPa16.1 kmWNW (290°)18.5 km/h
6:15 PM-24 °C-28 °C70 %1025.4 hPa16.1 kmWNW (290°)18.5 km/hClear
6:35 PM-24 °C-28 °C70 %1025.4 hPa16.1 kmWNW (290°)16.7 km/h
7:15 PM-25 °C-29 °C70 %1025.4 hPa16.1 kmWest (280°)14.8 km/h
7:35 PM-25 °C-29 °C70 %1025.7 hPa16.1 kmWNW (290°)18.5 km/h
8:15 PM-25 °C-29 °C70 %1025.7 hPa16.1 kmWNW (300°)20.4 km/h
8:35 PM-25 °C-29 °C70 %1025.7 hPa16.1 kmWNW (290°)13 km/h
8:55 PM-26 °C-30 °C70 %1025.7 hPa16.1 kmWNW (290°)14.8 km/h
9:15 PM-27 °C-30 °C76 %1025.7 hPa16.1 kmWest (280°)9.3 km/hClear
9:35 PM-27 °C-30 °C76 %1025.4 hPa16.1 kmWNW (290°)9.3 km/h
9:55 PM-27 °C-30 °C76 %1025.4 hPa16.1 kmWest (270°)11.1 km/h
10:15 PM-27 °C-30 °C76 %1025.1 hPa16.1 kmWSW (250°)5.6 km/h
10:35 PM-27 °C-30 °C76 %1025.1 hPa16.1 kmSouth (190°)9.3 km/h
10:55 PM-27 °C-30 °C76 %1024.7 hPa16.1 kmSSW (210°)7.4 km/hClear
11:15 PM-27 °C-30 °C76 %1024.4 hPa16.1 kmSW (220°)7.4 km/h
11:35 PM-28 °C-31 °C76 %1024.7 hPa16.1 kmWSW (240°)11.1 km/h
11:55 PM-28 °C-32 °C70 %1024.7 hPa16.1 kmSW (230°)11.1 km/h
Hourly data recorded from K2D5, located 0 kilometers away from Verona, North Dakota







STORIES FROM OUR PARTNERS